Mount Werner, CO

7:56 AM MDT on October 17, 2017 (GMT -0600)
Mount Werner

Weather History for K3MW - May, 2013

Change the Weather History Date:

Wednesday, May 1, 2013

  Actual Average (KSBS) Record (KSBS)
Temperature  
Mean Temperature 22 °F -  
Max Temperature 26 °F 59 °F 77 °F (1992)
Min Temperature 17 °F 27 °F 12 °F (1972)
Degree Days  
Heating Degree Days 44    
Moisture  
Dew Point 18 °F    
Average Humidity 77    
Maximum Humidity 93    
Minimum Humidity 55    
Precipitation  
Precipitation 0.00 in - - ()
Sea Level Pressure  
Sea Level Pressure 30.02 in    
Wind  
Wind Speed 6 mph (NW)    
Max Wind Speed 16 mph    
Max Gust Speed 23 mph    
Visibility 5 miles    
Events Fog , Snow    
Averages and records for this station are not official NWS values.
T = Trace of Precipitation, MM = Missing Value Source: NWS Daily Summary

Daily Weather History Graph

Daily Weather History Graph

Search for Another Location

Airport or City:

Trip Planner

Search our weather history database for the weather conditions in past years. The results will help you decide how hot, cold, wet, or windy it might be!

Date:

Astronomy

May. 01, 2013 Rise Set
Actual Time 6:05 AM MDT 8:02 PM MDT
Civil Twilight 5:36 AM MDT 8:32 PM MDT
Nautical Twilight 5:00 AM MDT 9:08 PM MDT
Astronomical Twilight 4:21 AM MDT 9:48 PM MDT
Moon 1:14 AM MDT (5/1) 11:47 AM MDT (5/1)
Length of Visible Light 14h 56m
Length of Day
13h 57m
Waning Gibbous, 58% of the Moon is Illuminated
May 1
Waning Gibbous
May 2
Last Quarter
May 9
New
May 17
First Quarter
May 24
Full

Hourly Weather History & Observations

Time (MDT) Temp. Windchill Dew Point Humidity Pressure Visibility Wind Dir Wind Speed Gust Speed Precip Events Conditions
12:16 AM 26.6 °F - 23.0 °F 86% 29.87 in 0.5 mi North - - N/A Snow Heavy Snow
12:36 AM 26.6 °F - 23.0 °F 86% 29.86 in 0.5 mi North - - N/A Snow Heavy Snow
12:56 AM 26.6 °F - 23.0 °F 86% 29.87 in 0.5 mi North - - N/A Snow Heavy Snow
1:16 AM 26.6 °F - 21.2 °F 80% 29.90 in 0.5 mi North - - N/A Snow Heavy Snow
1:36 AM 26.6 °F - 21.2 °F 80% 29.90 in 0.5 mi North - - N/A Snow Snow
1:56 AM 26.6 °F - 21.2 °F 80% 29.90 in - North - - N/A   Overcast
2:16 AM 24.8 °F - 21.2 °F 86% 29.90 in - North - - N/A   Overcast
2:36 AM 26.6 °F - 21.2 °F 80% 29.88 in - North - - N/A   Overcast
2:56 AM 26.6 °F - 21.2 °F 80% 29.88 in - Calm Calm - N/A   Overcast
3:16 AM 24.8 °F - 21.2 °F 86% 29.87 in 3.0 mi North - - N/A Snow Light Snow
3:36 AM 26.6 °F - 21.2 °F 80% 29.87 in 7.0 mi North - - N/A Snow Light Snow
3:56 AM 26.6 °F - 21.2 °F 80% 29.90 in 3.0 mi North - - N/A Snow Light Snow
4:16 AM 26.6 °F - 23.0 °F 86% 29.90 in 10.0 mi Calm Calm - N/A   Overcast
4:36 AM 26.6 °F 22.6 °F 21.2 °F 80% 29.90 in 10.0 mi ESE 3.5 mph - N/A Snow Light Snow
4:56 AM 26.6 °F 22.6 °F 21.2 °F 80% 29.90 in 5.0 mi ESE 3.5 mph - N/A Snow Light Snow
5:16 AM 26.6 °F 22.6 °F 21.2 °F 80% 29.90 in 5.0 mi East 3.5 mph - N/A Snow Light Snow
5:36 AM 26.6 °F - 23.0 °F 86% 29.90 in 2.5 mi Calm Calm - N/A Snow Light Snow
5:56 AM 26.6 °F - 23.0 °F 86% 29.90 in 7.0 mi Calm Calm - N/A Snow Light Snow
6:16 AM 26.6 °F 22.6 °F 21.2 °F 80% 29.91 in 3.0 mi NW 3.5 mph - N/A Snow Light Snow
6:36 AM 26.6 °F 22.6 °F 21.2 °F 80% 29.92 in 1.5 mi NW 3.5 mph - N/A Snow Light Snow
6:56 AM 24.8 °F 19.1 °F 21.2 °F 86% 29.92 in 0.5 mi NW 4.6 mph - N/A Snow Snow
7:16 AM 24.8 °F 16.1 °F 21.2 °F 86% 29.93 in 0.2 mi West 8.1 mph - N/A Snow Snow
7:36 AM 26.6 °F 19.1 °F 21.2 °F 80% 29.94 in 0.2 mi NW 6.9 mph - N/A Fog Light Freezing Fog
7:56 AM 26.6 °F 18.2 °F 21.2 °F 80% 29.94 in 0.2 mi WNW 8.1 mph - N/A Snow Light Snow
8:16 AM 24.8 °F 14.6 °F 21.2 °F 86% 29.94 in 0.2 mi NW 10.4 mph - N/A Snow Light Snow
8:36 AM 24.8 °F 14.0 °F 21.2 °F 86% 29.94 in 0.2 mi NW 11.5 mph 16.1 mph N/A Snow Light Snow
8:56 AM 24.8 °F 13.4 °F 21.2 °F 86% 29.94 in 0.2 mi NW 12.7 mph 18.4 mph N/A Fog Light Freezing Fog
9:16 AM - - - N/A% 29.95 in 0.2 mi WNW 12.7 mph 18.4 mph N/A   Unknown
9:36 AM - - - N/A% 29.96 in 0.2 mi WNW 10.4 mph - N/A   Unknown
9:56 AM - - - N/A% 29.96 in 0.2 mi WNW 9.2 mph - N/A   Unknown
10:16 AM - - - N/A% 29.97 in 0.2 mi WNW 10.4 mph 17.3 mph N/A Fog Fog
10:36 AM - - - N/A% 29.98 in 0.2 mi WNW 6.9 mph - N/A   Unknown
10:56 AM - - - N/A% 29.98 in 0.2 mi NW 6.9 mph - N/A   Unknown
11:16 AM - - - N/A% 30.00 in 0.2 mi WSW 4.6 mph - N/A   Unknown
11:36 AM - - - N/A% 30.00 in 0.2 mi WSW 4.6 mph - N/A   Unknown
11:56 AM - - - N/A% 30.00 in 0.2 mi West 3.5 mph - N/A   Unknown
12:16 PM - - - N/A% 30.00 in 0.2 mi WSW 10.4 mph - N/A   Unknown
12:36 PM - - - N/A% 30.00 in 0.2 mi WSW 9.2 mph - N/A   Unknown
12:56 PM - - - N/A% 30.01 in 0.2 mi WSW 6.9 mph - N/A   Unknown
1:16 PM - - - N/A% 30.03 in 0.2 mi WSW 8.1 mph - N/A   Unknown
1:36 PM - - - N/A% 30.03 in 0.8 mi WSW 9.2 mph - N/A   Overcast
1:56 PM - - - N/A% 30.04 in 7.0 mi SW 4.6 mph - N/A   Overcast
2:16 PM - - - N/A% 30.05 in 5.0 mi SW 11.5 mph 18.4 mph N/A   Haze
2:36 PM - - - N/A% 30.05 in 10.0 mi West 12.7 mph 17.3 mph N/A   Mostly Cloudy
2:56 PM - - - N/A% 30.05 in 10.0 mi WNW 12.7 mph 19.6 mph N/A   Overcast
3:16 PM - - - N/A% 30.06 in 10.0 mi WNW 12.7 mph 21.9 mph N/A   Overcast
3:36 PM 26.6 °F 18.2 °F 21.2 °F 80% 30.07 in 10.0 mi WNW 8.1 mph 18.4 mph N/A   Overcast
3:56 PM 23.0 °F 9.6 °F 21.2 °F 93% 30.06 in 10.0 mi WNW 16.1 mph 23.0 mph N/A Snow Light Snow
4:16 PM 26.6 °F 17.5 °F 21.2 °F 80% 30.07 in 7.0 mi West 9.2 mph - N/A   Mostly Cloudy
4:36 PM 23.0 °F 12.4 °F 19.4 °F 86% 30.08 in 10.0 mi West 10.4 mph - N/A   Mostly Cloudy
4:56 PM 24.8 °F 12.4 °F 21.2 °F 86% 30.08 in 10.0 mi West 15.0 mph 20.7 mph N/A   Overcast
5:16 PM 24.8 °F 14.0 °F 17.6 °F 74% 30.10 in 10.0 mi West 11.5 mph 23.0 mph N/A   Scattered Clouds
5:36 PM 26.6 °F 14.7 °F 14.0 °F 59% 30.10 in 10.0 mi WNW 15.0 mph 23.0 mph N/A   Mostly Cloudy
5:56 PM 26.6 °F 15.2 °F 17.6 °F 69% 30.11 in 10.0 mi NW 13.8 mph 21.9 mph N/A   Overcast
6:16 PM 26.6 °F 15.2 °F 12.2 °F 55% 30.13 in 10.0 mi WNW 13.8 mph 21.9 mph N/A   Mostly Cloudy
6:36 PM 24.8 °F 16.9 °F 12.2 °F 59% 30.13 in 10.0 mi NNW 6.9 mph - N/A   Mostly Cloudy
6:56 PM 26.6 °F 18.2 °F 14.0 °F 59% 30.15 in 10.0 mi NNW 8.1 mph - N/A   Overcast
7:36 PM 24.8 °F - 14.0 °F 64% 30.17 in 10.0 mi Calm Calm - N/A   Mostly Cloudy
7:56 PM 23.0 °F 13.9 °F 14.0 °F 68% 30.18 in 10.0 mi NNE 8.1 mph - N/A   Overcast
8:36 PM 19.4 °F 7.2 °F 12.2 °F 74% 30.20 in 10.0 mi NE 11.5 mph - N/A   Scattered Clouds
8:56 PM 19.4 °F 8.6 °F 12.2 °F 74% 30.20 in 10.0 mi NE 9.2 mph - N/A   Clear
9:16 PM 19.4 °F 7.2 °F 10.4 °F 68% 30.21 in 10.0 mi NE 11.5 mph 17.3 mph N/A   Scattered Clouds
9:36 PM 19.4 °F 7.9 °F 10.4 °F 68% 30.22 in 10.0 mi NE 10.4 mph - N/A   Mostly Cloudy
9:56 PM 19.4 °F 7.2 °F 8.6 °F 63% 30.23 in 10.0 mi NE 11.5 mph - N/A   Scattered Clouds
10:16 PM 19.4 °F 9.5 °F 8.6 °F 63% 30.24 in 10.0 mi NE 8.1 mph - N/A   Mostly Cloudy
10:36 PM 19.4 °F 8.6 °F 8.6 °F 63% 30.24 in 10.0 mi NE 9.2 mph - N/A   Overcast
10:56 PM 19.4 °F 9.5 °F 8.6 °F 63% 30.25 in 10.0 mi NE 8.1 mph - N/A Snow Light Snow
11:16 PM 17.6 °F - 8.6 °F 68% 30.25 in 10.0 mi Calm Calm - N/A   Scattered Clouds
11:36 PM 17.6 °F 9.3 °F 6.8 °F 63% 30.26 in 10.0 mi NE 5.8 mph - N/A   Clear
11:56 PM 17.6 °F 8.2 °F 8.6 °F 68% 30.27 in 10.0 mi NE 6.9 mph - N/A   Clear